(26) Proserpina
ephemeris date magn radius delta ra dec elong phase
Today27 Jun 202612.12.438 AU2.086 AU12h47m-04°23'97.6°24.4°
Opposition19 Aug 202710.82.612 AU1.603 AU22h03m-17°57'174.2°2.2°
(26) Proserpina - 2026-06-27
astro.vanbuitenen.nl


 
-1 year
-1 month
-1 day
Now
+1 day
+1 month
+1 year

The interactive orbit chart above shows the body's path through the solar system and its position at the given date. Green and blue lines are shown perpendicular to the ecliptic plane: Green if the path is above the ecliptic plane, blue if it is below. (Left-click and drag to rotate the view; Right-click and drag to move the view; Use scroll wheel to zoom in our out.)

The orbital elements of Proserpina are:

            e (Eccentricity)                : 0.0887077
            a (Semimajor axis)              : 2.6550796
            i (Inclination)                 : 3.55454
            Ω (Longitude of ascending node) : 45.68415
            ω (Argument of perihelion)      : 196.12059
            M (Mean anomaly)                : 335.10351
            Epoch                           : 2026 Jun 09

            L (Longitude of perihelion)     : 61.77533
            B (Latitude of perihelion)      : -0.98637
            P (Orbital period in years)     : 4.33            
        

The light curve chart below shows the estimated development of the minor planet's magnitude.


The all-sky chart below shows the path of the minor planet over the same period as the light curve. The current position is marked yellow.





The following chart shows the path of the minor planet in the next few days. The field of view is optimized for (~10x50) binoculars and finderscopes.




Ephemerides:
Date       Time       RA (2000)    DEC (2000)    delta   radius  elong  phase   PA    magn
2026-06-27 00:00 UT   12 47 17.4   -04 23 46     2.086    2.438   97.6   24.4   113   12.1 
2026-06-27 18:16 UT   12 47 53.1   -04 28 40     2.095    2.438   97.0   24.4   113   12.2 
2026-06-28 00:00 UT   12 48 04.4   -04 30 13     2.098    2.438   96.8   24.5   113   12.2 
2026-06-29 00:00 UT   12 48 52.5   -04 36 44     2.110    2.437   96.1   24.5   113   12.2 
2026-06-30 00:00 UT   12 49 41.6   -04 43 21     2.121    2.437   95.4   24.5   113   12.2 
2026-07-01 00:00 UT   12 50 31.8   -04 50 03     2.133    2.436   94.7   24.6   113   12.2 
2026-07-02 00:00 UT   12 51 23.1   -04 56 51     2.145    2.436   94.0   24.6   113   12.2 
2026-07-03 00:00 UT   12 52 15.3   -05 03 43     2.157    2.436   93.2   24.6   113   12.2 
2026-07-04 00:00 UT   12 53 08.5   -05 10 41     2.168    2.435   92.5   24.6   113   12.2 
2026-07-05 00:00 UT   12 54 02.7   -05 17 43     2.180    2.435   91.8   24.7   113   12.2 
2026-07-06 00:00 UT   12 54 57.9   -05 24 51     2.192    2.435   91.1   24.7   113   12.3 
2026-07-07 00:00 UT   12 55 54.1   -05 32 03     2.204    2.434   90.5   24.7   113   12.3 
2026-07-08 00:00 UT   12 56 51.2   -05 39 19     2.216    2.434   89.8   24.7   113   12.3 
2026-07-09 00:00 UT   12 57 49.2   -05 46 40     2.227    2.433   89.1   24.7   113   12.3 
2026-07-10 00:00 UT   12 58 48.2   -05 54 06     2.239    2.433   88.4   24.7   113   12.3 
2026-07-11 00:00 UT   12 59 48.1   -06 01 35     2.251    2.433   87.7   24.7   113   12.3 
2026-07-12 00:00 UT   13 00 48.8   -06 09 09     2.263    2.432   87.0   24.7   113   12.3 
2026-07-13 00:00 UT   13 01 50.5   -06 16 47     2.275    2.432   86.4   24.7   113   12.3 
2026-07-14 00:00 UT   13 02 53.1   -06 24 30     2.286    2.432   85.7   24.6   112   12.3 
2026-07-15 00:00 UT   13 03 56.5   -06 32 16     2.298    2.431   85.1   24.6   112   12.4 
2026-07-16 00:00 UT   13 05 00.8   -06 40 06     2.310    2.431   84.4   24.6   112   12.4 
2026-07-17 00:00 UT   13 06 06.0   -06 47 59     2.322    2.431   83.7   24.6   112   12.4 
2026-07-18 00:00 UT   13 07 11.9   -06 55 56     2.334    2.431   83.1   24.5   112   12.4 
2026-07-19 00:00 UT   13 08 18.7   -07 03 57     2.345    2.430   82.4   24.5   112   12.4 
2026-07-20 00:00 UT   13 09 26.3   -07 12 01     2.357    2.430   81.8   24.5   112   12.4 
2026-07-21 00:00 UT   13 10 34.7   -07 20 09     2.369    2.430   81.2   24.4   112   12.4 
2026-07-22 00:00 UT   13 11 43.9   -07 28 19     2.380    2.429   80.5   24.4   112   12.4 
2026-07-23 00:00 UT   13 12 53.9   -07 36 33     2.392    2.429   79.9   24.3   112   12.4 
2026-07-24 00:00 UT   13 14 04.6   -07 44 49     2.404    2.429   79.2   24.3   112   12.4 
2026-07-25 00:00 UT   13 15 16.1   -07 53 09     2.415    2.428   78.6   24.2   112   12.5 
2026-07-26 00:00 UT   13 16 28.3   -08 01 31     2.427    2.428   78.0   24.1   112   12.5 
2026-07-27 00:00 UT   13 17 41.2   -08 09 56     2.439    2.428   77.4   24.1   112   12.5 


    Terminology:
            
    delta:  distance between minor planet and earth in AU
    radius: distance between minor planet and sun in AU
    magn:   magnitude (brightness) estimate    
    ra:     right ascension in hours (24h = 360deg)
    dec:    declination in degrees
    elong:  elongation in degrees (angle sun-earth-minor planet)    
    phase:  phase angle in degrees (angle sun-minor planet-earth)        
    AU:     Astronomical Unit (mean distance between earth and sun: 149597870.7 km
    

Orbital elements provided by the MPC (Minor Planet Center).
Calculations by a modified version of AAPlus, a C# implementation of the AA+ project by PJ Naughter from the algorithms presented in the book "Astronomical Algorithms" by Jean Meeus.
NGC2000 dso catalog and star labels from VizieR as provided by the Strasbourg astronomical Data Center.
Tycho2 catalog from the ESO archive.